Haleyville, AL

5:57 PM CST on December 11, 2017 (GMT -0600)
Haleyville

Weather History for K1M4 - February, 2012

Change the Weather History Date:

Tuesday, February 28, 2012

  Actual Average (KJFX) Record (KJFX)
Temperature  
Mean Temperature 54 °F -  
Max Temperature 66 °F 58 °F 80 °F (1981)
Min Temperature 41 °F 32 °F 19 °F (1974)
Degree Days  
Heating Degree Days 12    
Growing Degree Days 4 (Base 50)    
Moisture  
Dew Point 54 °F    
Average Humidity 93    
Maximum Humidity 100    
Minimum Humidity 54    
Precipitation  
Precipitation 0.04 in - - ()
Sea Level Pressure  
Sea Level Pressure 30.24 in    
Wind  
Wind Speed 5 mph (SSE)    
Max Wind Speed 14 mph    
Max Gust Speed 20 mph    
Visibility 6 miles    
Events Fog , Rain    
Averages and records for this station are not official NWS values.
T = Trace of Precipitation, MM = Missing Value Source: NWS Daily Summary

Daily Weather History Graph

Daily Weather History Graph

Search for Another Location

Airport or City:

Trip Planner

Search our weather history database for the weather conditions in past years. The results will help you decide how hot, cold, wet, or windy it might be!

Date:

Astronomy

Feb. 28, 2012 Rise Set
Actual Time 6:21 AM CST 5:45 PM CST
Civil Twilight 5:55 AM CST 6:10 PM CST
Nautical Twilight 5:26 AM CST 6:39 PM CST
Astronomical Twilight 4:57 AM CST 7:08 PM CST
Moon 9:47 AM CST (2/28) No Moon Set
Length of Visible Light 12h 14m
Length of Day
11h 24m
Waxing Crescent, 38% of the Moon is Illuminated
Feb 28
Waxing Crescent
Feb 29
First Quarter
Mar 8
Full
Mar 14
Last Quarter
Mar 22
New

Hourly Weather History & Observations

Time (CST) Temp. Dew Point Humidity Pressure Visibility Wind Dir Wind Speed Gust Speed Precip Events Conditions
12:56 AM 41.0 °F 39.9 °F 96% 30.38 in 10.0 mi Calm Calm - N/A   Clear
1:56 AM 41.0 °F 39.9 °F 96% 30.36 in 10.0 mi Calm Calm - N/A   Partly Cloudy
2:56 AM 41.9 °F 41.9 °F 100% 30.35 in 10.0 mi Calm Calm - N/A   Overcast
3:56 AM 43.0 °F 41.0 °F 93% 30.35 in 10.0 mi Calm Calm - N/A   Overcast
4:56 AM 41.9 °F 41.0 °F 97% 30.35 in 10.0 mi Calm Calm - N/A   Partly Cloudy
5:56 AM 41.0 °F 39.9 °F 96% 30.35 in 10.0 mi Calm Calm - N/A   Clear
6:56 AM 41.9 °F 39.9 °F 93% 30.34 in 10.0 mi Calm Calm - N/A   Clear
7:56 AM 54.0 °F 45.9 °F 74% 30.36 in 10.0 mi East 3.5 mph - N/A   Mostly Cloudy
8:56 AM 57.9 °F 48.9 °F 72% 30.35 in 10.0 mi SSE 8.1 mph - N/A   Mostly Cloudy
9:56 AM 61.0 °F 50.9 °F 69% 30.35 in 10.0 mi SSE 9.2 mph - N/A   Mostly Cloudy
10:56 AM 64.9 °F 50.0 °F 58% 30.33 in 10.0 mi SE 9.2 mph 19.6 mph N/A   Mostly Cloudy
11:56 AM 66.9 °F 50.0 °F 54% 30.30 in 10.0 mi SSE 10.4 mph 19.6 mph N/A   Scattered Clouds
12:56 PM 63.9 °F 52.9 °F 67% 30.28 in 10.0 mi SE 10.4 mph - N/A   Overcast
1:56 PM 63.0 °F 54.9 °F 75% 30.27 in 10.0 mi SSE 13.8 mph - N/A   Overcast
2:43 PM 59.0 °F 57.2 °F 94% 30.23 in 2.5 mi SSE 9.2 mph - 0.00 in Rain Light Rain
2:49 PM 59.0 °F 57.2 °F 94% 30.23 in 8.0 mi SSE 9.2 mph - 0.00 in   Overcast
2:56 PM 59.0 °F 57.9 °F 96% 30.25 in 10.0 mi SE 5.8 mph - 0.00 in   Overcast
3:03 PM 59.0 °F 57.2 °F 94% 30.22 in 10.0 mi SE 4.6 mph - N/A   Overcast
3:20 PM 59.0 °F 57.2 °F 94% 30.21 in 8.0 mi SE 11.5 mph 16.1 mph N/A   Overcast
3:56 PM 59.0 °F 57.9 °F 96% 30.23 in 10.0 mi SE 9.2 mph - N/A   Overcast
4:49 PM 59.0 °F 57.2 °F 94% 30.20 in 9.0 mi SSE 8.1 mph - N/A   Overcast
4:56 PM 59.0 °F 57.9 °F 96% 30.22 in 8.0 mi SE 9.2 mph - N/A   Overcast
5:22 PM 57.2 °F 57.2 °F 100% 30.19 in 1.8 mi SE 8.1 mph - N/A   Overcast
5:29 PM 57.2 °F 57.2 °F 100% 30.20 in 1.2 mi SSE 6.9 mph - N/A   Overcast
5:56 PM 57.9 °F 57.9 °F 100% 30.23 in 2.0 mi South 8.1 mph - N/A   Overcast
6:22 PM 57.2 °F 57.2 °F 100% 30.19 in 5.0 mi SSE 8.1 mph - 0.00 in   Overcast
6:35 PM 59.0 °F 59.0 °F 100% 30.20 in 1.8 mi SSE 10.4 mph - 0.00 in   Overcast
6:44 PM 59.0 °F 59.0 °F 100% 30.19 in 2.0 mi SSE 9.2 mph - 0.00 in   Overcast
6:56 PM 59.0 °F 59.0 °F 100% 30.22 in 1.8 mi SSE 8.1 mph - 0.00 in Rain Light Rain
7:08 PM 59.0 °F 59.0 °F 100% 30.19 in 1.2 mi SSE 8.1 mph - 0.00 in   Overcast
7:20 PM 59.0 °F 59.0 °F 100% 30.19 in 1.0 mi SSE 9.2 mph - 0.00 in   Overcast
7:31 PM 59.0 °F 59.0 °F 100% 30.19 in 1.2 mi SSE 10.4 mph - 0.00 in   Overcast
7:48 PM 57.2 °F 57.2 °F 100% 30.18 in 2.0 mi SSE 8.1 mph - 0.01 in Rain Light Rain
7:56 PM 59.0 °F 59.0 °F 100% 30.22 in 5.0 mi SSE 6.9 mph - 0.01 in Rain Light Rain
8:56 PM 59.0 °F 59.0 °F 100% 30.21 in 1.8 mi SSE 11.5 mph 17.3 mph 0.02 in Rain Light Rain
9:08 PM 59.0 °F 59.0 °F 100% 30.18 in 3.0 mi SSE 9.2 mph - 0.01 in Rain Light Rain
9:31 PM 59.0 °F 59.0 °F 100% 30.17 in 2.0 mi SSE 8.1 mph - 0.01 in   Overcast
9:56 PM 59.0 °F 59.0 °F 100% 30.19 in 1.8 mi SSE 11.5 mph - 0.01 in   Overcast
10:13 PM 59.0 °F 59.0 °F 100% 30.15 in 1.0 mi South 10.4 mph - N/A   Overcast
10:24 PM 60.8 °F 60.8 °F 100% 30.15 in 0.8 mi South 8.1 mph - N/A   Overcast
10:33 PM 60.8 °F 60.8 °F 100% 30.14 in 0.5 mi South 10.4 mph - N/A Fog Fog
10:56 PM 59.9 °F 59.9 °F 100% 30.17 in 0.5 mi SSE 9.2 mph 17.3 mph N/A Fog Fog
11:32 PM 60.8 °F 60.8 °F 100% 30.14 in 0.8 mi South 10.4 mph - N/A   Overcast
11:56 PM 61.0 °F 61.0 °F 100% 30.17 in 1.5 mi South 9.2 mph - N/A   Overcast